Regional Weather Roundup
Issued by NWS

Home | Current Version | Previous Version | Graphics & Text | Print | Product List | Glossary On
Versions: 1 2 3 4 5 6 7 8 9 10 11 12 13 14 15 16 17 18 19 20 21 22 23 24 25 26 27 28 29 30 31 32 33 34 35 36 37 38 39 40 41 42 43 44 45 46 47 48 49 50
431
ASUS43 KLOT 182003
RWRIL

ILLINOIS REGIONAL WEATHER ROUNDUP
NATIONAL WEATHER SERVICE CHICAGO/ROMEOVILLE IL
200 PM CST WED JAN 18 2017

NOTE: "FAIR" INDICATES FEW OR NO CLOUDS BELOW 12,000 FEET WITH NO
SIGNIFICANT WEATHER AND/OR OBSTRUCTIONS TO VISIBILITY.

* THESE STATIONS ARE NOT UNDER NWS QUALITY CONTROL. THEY ALSO MAY NOT
  REPORT WEATHER SUCH AS PRECIPITATION OR FOG.

ILZ001-002-007-009-015-016-024-182100-
NORTHWEST ILLINOIS

CITY           SKY/WX    TMP DP  RH WIND       PRES   REMARKS
MOLINE         CLOUDY    38  32  79 SW10G21   30.06F WCI  31
STERLING*      CLOUDY    38  33  82 VRB5      30.06F WCI  34
SAVANNA*       SUNNY     39  32  77 S8        30.04F WCI  33
$$

ILZ003-004-008-010-011-017-018-182100-
NORTH CENTRAL ILLINOIS

CITY           SKY/WX    TMP DP  RH WIND       PRES   REMARKS
ROCKFORD       CLOUDY    35  31  85 SW8       30.06F WCI  29
FREEPORT*      CLOUDY    34  32  92 SW8       30.05F FOG     WCI  27
ROCHELLE*      CLOUDY    35  32  90 SW10      30.06F WCI  27
DE KALB*       CLOUDY    34  32  91 SW12      30.06F WCI  26
$$

ILZ005-006-012>014-019>023-182100-
NORTHEAST ILLINOIS

CITY           SKY/WX    TMP DP  RH WIND       PRES   REMARKS
CHICAGO-OHARE  CLOUDY    36  32  85 SW14G20   30.06F WCI  27
CHICAGO-MIDWAY CLOUDY    34  31  88 SW12      30.07F WCI  25
AURORA         CLOUDY    36  32  85 SW10      30.07F WCI  28
LANSING*       CLOUDY    36  34  93 SW14G22   30.09F WCI  27
JOLIET*        CLOUDY    38  34  85 SW7       30.09F WCI  32
WAUKEGAN       CLOUDY    36  32  85 SW12G21   30.04R WCI  28
DUPAGE AIRPORT CLOUDY    35  31  85 SW15      30.06F WCI  25
KANKAKEE*      CLOUDY    38  33  82 SW10G16   30.09F WCI  32
WHEELING       CLOUDY    36  31  82 SW14G21   30.06F WCI  27
MORRIS*        CLOUDY    37  32  83 SW7       30.07F WCI  32
ROMEOVILLE*    CLOUDY    36  35  97 SW7       30.08F WCI  30
NORTHERLY ISL    N/A     36  32  85 W10         N/A  WCI  28
$$

LMZ740>746-182100-
SOUTHERN LAKE MICHIGAN

STATION/POSITION SKY/WX   TEMP    WIND        PRES    VSBY  WAVE
                          AIR SEA DIR/SP/G                  HT/PER
                          (F)     (DEG/KT/KT) (MB)    (MI)  (FT/S)
HARRISON CRIB              36     230/ 15/ 18   N/A
BURNHAM HARBOR             36     240/  6/ 13   N/A
CALUMET HARBOR             35     210/ 12/ 17 1017.9F
BURNS HARBOR               35     220/ 17/ 21 1019.3F
$$

ILZ025>027-034>036-040-047-049-050-058-095>099-182100-
WEST-CENTRAL ILLINOIS

CITY           SKY/WX    TMP DP  RH WIND       PRES   REMARKS
QUINCY         PTSUNNY   41  36  82 S8        30.10F
GALESBURG*     CLOUDY    39  35  86 S12       30.08F WCI  32
MACOMB*        SUNNY     42  37  82 SW12      30.11F
JACKSONVILLE*  SUNNY     43  34  70 S8        30.12S
PITTSFIELD*    SUNNY     43  35  74 S6        30.12F
$$

ILZ028>032-037-038-041>044-048-051>054-059>061-182100-
CENTRAL ILLINOIS

CITY           SKY/WX    TMP DP  RH WIND       PRES   REMARKS
BLOOMINGTON    CLOUDY    37  34  89 SW15      30.10F WCI  28
DECATUR        PTSUNNY   41  35  79 SW9       30.13F
PEORIA         CLOUDY    37  33  85 SW13      30.11F WCI  29
LACON*         SUNNY     39  33  78 S12       30.08S WCI  32
LINCOLN*       PTSUNNY   42  36  79 S3        30.12F
SPRINGFIELD    SUNNY     43  33  68 VRB3      30.13F
TAYLORVILLE    MOSUNNY   43  37  79 S10       30.13F
$$

ILZ033-039-045-046-055>057-062-063-182100-
EAST-CENTRAL ILLINOIS

CITY           SKY/WX    TMP DP  RH WIND       PRES   REMARKS
CHAMPAIGN      CLOUDY    40  34  79 SW12      30.13F
RANTOUL*       PTSUNNY   42  37  82 S8        30.11F
MATTOON        CLOUDY    39  34  82 SW8       30.14S WCI  33
PARIS*         CLOUDY    40  36  86 S8        30.16S
$$

ILZ079-100>102-182100-
SOUTHWEST ILLINOIS

CITY           SKY/WX    TMP DP  RH WIND       PRES   REMARKS
ALTON          PTSUNNY   45  34  65 S6        30.13F
BELLEVILLE     CLOUDY    46  36  68 S9        30.13F
CAHOKIA*       CLOUDY    47  34  60 VRB6      30.13F
SPARTA*        CLOUDY    45  36  71 SE6       30.16F
$$

ILZ064>066-069>071-074>076-080>082-084>086-088>090-092>094-182100-
SOUTH-CENTRAL ILLINOIS

CITY           SKY/WX    TMP DP  RH WIND       PRES   REMARKS
CARBONDALE     CLOUDY    45  38  76 E3        30.16F
CAIRO*         CLOUDY    43  38  84 E5        30.17F
EFFINGHAM*     CLOUDY    42  37  80 S6        30.17F
MARION         PTSUNNY   48  37  66 E6        30.17F
MT. VERNON     MOSUNNY   45  37  73 S6        30.16F
CENTRALIA*     CLOUDY    46  38  75 S6        30.14F
SALEM*         CLOUDY    46  36  67 S5        30.15F
METROPOLIS*    CLOUDY    44  38  80 CALM      30.17F
$$

ILZ067-068-072-073-078-083-087-091-182100-
SOUTHEAST ILLINOIS

CITY           SKY/WX    TMP DP  RH WIND       PRES   REMARKS
LAWRENCEVILLE  CLOUDY    40  37  89 SE7       30.18F
FLORA*         CLOUDY    43  37  77 S6        30.17F
FAIRFIELD*     CLOUDY    41  36  80 S3        30.17F
HARRISBURG*    PTSUNNY   44  37  77 CALM      30.17F
ROBINSON*      CLOUDY    39  35  87 SW7       30.19S WCI  34
CARMI*         CLOUDY    42  37  81 SE5       30.17F
$$

ABBREVIATIONS USED IN REMARKS
   TC - TEMPERATURE IN CELSIUS
  WCI - WIND CHILL INDEX
   HX - HEAT INDEX
  VSB - VISIBILITY
$$





USA.gov is the U.S. government's official web portal to all federal, state and local government web resources and services.